[[{"header":{"parameterUnit":"m.s-1","parameterCategory":1,"la1":30.2991,"la2":30.254,"lo1":-89.0895,"lo2":-89.0444,"dy":0.0017,"dx":0.0017,"nx":28,"ny":28,"refTime":"2025-08-20T21:00:00:Z","depth":0,"parameterNumber":2,"parameterNumberName":"U-component_of_WINDS"},"data":[0,0,0,0,0,0,0,0,0,0,0,0,0,0,0,0,0,0,0,0,0,0,0,0,0,0,0,0,0,0,0,0,0,0,0,0,0,0,0,0,0,0,0,0,0,0,0,0,0,0,0,0,0,0,0,0,0,0,-0.2125,-0.2124,0,-0.2102,-0.2101,-0.2101,-0.2118,-0.2119,-0.212,-0.212,-0.2093,-0.2092,-0.209,0,0,0,0,0,0,0,0,0,0,0,0,0,-0.2179,-0.2178,-0.2125,-0.2124,-0.2124,-0.2102,-0.2101,-0.2101,-0.2118,-0.2119,-0.212,-0.2121,-0.2094,-0.2092,-0.209,0,0,0,0,0,0,0,0,0,0,0,0,0,-0.2155,-0.2177,-0.2125,-0.213,-0.213,-0.2102,-0.2101,-0.2101,-0.2118,-0.2119,-0.212,-0.2121,-0.2094,-0.2092,-0.209,-0.2054,0,0,-0.2084,-0.2083,0,0,0,0,0,0,0,0,-0.2157,-0.2153,-0.2129,-0.2129,-0.213,-0.2114,-0.2111,-0.2085,-0.2117,-0.2122,-0.212,-0.2122,-0.2099,-0.2097,-0.209,-0.2053,-0.2052,-0.2083,-0.2082,-0.2081,-0.2081,0,0,0,0,0,0,0,-0.2158,-0.2154,-0.2115,-0.2129,-0.2129,-0.2132,-0.213,-0.2106,-0.2104,-0.2122,-0.2123,-0.212,-0.2099,-0.2092,-0.2089,-0.2052,-0.2083,-0.2082,-0.208,-0.2079,-0.1982,-0.1981,0,0,0,0,0,0,-0.216,-0.2156,-0.2116,-0.2115,-0.2146,-0.213,-0.2128,-0.2118,-0.2105,-0.2104,-0.2119,-0.2121,-0.2095,-0.2092,-0.2088,-0.2044,-0.2081,-0.2079,-0.2078,-0.1983,-0.1982,-0.198,0,0,0,0,0,0,-0.2161,-0.2156,-0.2117,-0.2135,-0.2131,-0.2128,-0.2117,-0.2117,-0.2109,-0.2103,-0.2102,-0.2112,-0.2096,-0.2091,-0.2062,-0.2043,-0.2078,-0.2076,-0.1985,-0.1983,-0.1981,-0.1956,0,0,0,0,0,0,-0.2162,-0.2156,-0.2144,-0.2135,-0.213,-0.2093,-0.2116,-0.2115,-0.2106,-0.2108,-0.2096,-0.2095,-0.2096,-0.2066,-0.206,-0.2041,-0.2075,-0.1987,-0.1984,-0.1982,-0.1958,-0.1953,-0.1949,0,0,0,0,0,-0.2164,-0.2137,-0.2143,-0.2138,-0.2114,-0.2092,-0.2088,-0.2091,-0.2104,-0.2091,-0.2087,-0.2095,-0.2047,-0.2062,-0.2057,-0.2036,-0.1988,-0.1985,-0.1982,-0.196,-0.1954,-0.1949,0,0,0,0,0,0,-0.2143,-0.2136,-0.2143,-0.2112,-0.2103,-0.2095,-0.2078,-0.2085,-0.207,-0.2073,-0.2076,-0.2073,-0.2042,-0.2037,-0.2054,-0.2,-0.2019,-0.2015,-0.2004,-0.1999,-0.1994,-0.1995,-0.2073,0,0,0,0,0,-0.2135,-0.2118,-0.2113,-0.2087,-0.2082,-0.208,-0.2071,-0.2074,-0.2063,-0.2059,-0.2053,-0.2041,-0.2023,-0.2011,-0.1994,-0.1958,-0.1954,-0.1941,-0.1936,-0.1932,-0.1928,-0.1906,-0.19,-0.1971,-0.1971,-0.1971,0,0,-0.2117,-0.2112,-0.2101,-0.2082,-0.2075,-0.2056,-0.2077,-0.2057,-0.2042,-0.2055,-0.2028,-0.2023,-0.201,-0.1977,-0.1962,-0.1971,-0.1908,-0.1929,-0.1926,-0.1923,-0.1903,-0.1896,-0.189,-0.1969,-0.1969,-0.197,0,0,-0.2076,-0.2071,-0.2048,-0.204,-0.2029,-0.2029,-0.2023,-0.2014,-0.2011,-0.1984,-0.1993,-0.1975,-0.1944,-0.1934,-0.1925,-0.1879,-0.1885,-0.1873,-0.1848,-0.1827,-0.1821,-0.1816,-0.1797,-0.1791,-0.1869,-0.1869,-0.1869,0,-0.2055,-0.2029,-0.2035,-0.2013,-0.2004,-0.2016,-0.1991,-0.1983,-0.1967,-0.1959,-0.197,-0.1931,-0.1923,-0.1887,-0.1876,-0.1869,-0.186,-0.1874,-0.1822,-0.1817,-0.1812,-0.1794,-0.1787,-0.1868,-0.1868,-0.1868,-0.1868,0,-0.2003,-0.1985,-0.1967,-0.1951,-0.194,-0.1917,-0.1917,-0.1905,-0.1909,-0.1907,-0.1877,-0.1869,-0.1849,-0.1841,-0.1845,-0.1805,-0.181,-0.1822,-0.184,-0.1804,-0.1787,-0.178,-0.1865,-0.1866,-0.1866,-0.1867,0,0,-0.1947,-0.1935,-0.1928,-0.192,-0.1909,-0.1894,-0.1871,-0.1853,-0.1841,-0.1829,-0.1808,-0.1782,-0.1792,-0.1781,-0.1784,-0.1765,-0.1726,-0.1778,-0.1778,-0.1767,-0.1679,-0.1669,-0.1661,-0.1732,-0.173,-0.173,-0.1679,0,-0.1903,-0.1864,-0.1868,-0.183,-0.1811,-0.1823,-0.1802,-0.1792,-0.1789,-0.1772,-0.1768,-0.1749,-0.1764,-0.1758,-0.174,-0.1735,-0.1708,-0.1739,-0.171,-0.1709,-0.1711,-0.1653,-0.1643,-0.1596,-0.1673,-0.1672,-0.1671,0,-0.1847,-0.1833,-0.1794,-0.1784,-0.1776,-0.1758,-0.1741,-0.1726,-0.1713,-0.1712,-0.17,-0.1706,-0.168,-0.1701,-0.1665,-0.1686,-0.1674,-0.1669,-0.1668,-0.1663,-0.1686,-0.1645,-0.1582,-0.1574,-0.1661,-0.1662,-0.1663,0,-0.1807,-0.1779,-0.1751,-0.1745,-0.1733,-0.172,-0.1714,-0.1704,-0.1692,-0.1677,-0.1669,-0.1651,-0.164,-0.1625,-0.1624,-0.164,-0.1587,-0.1608,-0.1583,-0.1583,-0.157,-0.157,-0.1502,-0.1566,-0.1566,-0.1567,-0.1567,0,-0.1756,-0.1731,-0.1733,-0.1716,-0.1687,-0.1691,-0.1662,-0.1658,-0.1648,-0.1629,-0.1638,-0.1619,-0.1621,-0.1601,-0.1601,-0.1569,-0.1565,-0.1562,-0.1561,-0.156,-0.156,-0.1551,-0.1553,-0.1565,-0.1565,-0.1565,-0.1566,0,-0.1706,-0.1707,-0.1677,-0.1668,-0.1666,-0.1645,-0.1637,-0.1619,-0.1618,-0.1593,-0.1587,-0.1583,-0.1561,-0.1559,-0.1533,-0.1533,-0.1494,-0.1498,-0.1498,-0.1498,-0.1472,-0.1474,-0.1393,-0.1382,-0.1456,-0.1455,-0.1455,0,-0.1673,-0.1653,-0.1643,-0.1631,-0.1625,-0.1606,-0.1594,-0.1598,-0.1585,-0.1569,-0.1553,-0.1532,-0.1515,-0.1478,-0.1472,-0.1451,-0.1453,-0.1427,-0.145,-0.1449,-0.145,-0.145,-0.1447,-0.1421,-0.1421,-0.142,-0.1419,0,-0.1612,-0.1614,-0.1597,-0.1581,-0.1567,-0.1554,-0.1541,-0.1531,-0.1532,-0.1517,-0.1495,-0.1481,-0.1455,-0.1432,-0.1412,-0.1405,-0.1411,-0.1412,-0.1405,-0.1402,-0.1402,-0.1399,-0.1483,-0.1414,-0.1414,-0.1415,-0.1415,-0.1415,-0.1568,-0.1551,-0.1541,-0.1522,-0.1513,-0.1501,-0.1484,-0.148,-0.1462,-0.1441,-0.1444,-0.1418,-0.1405,-0.1379,-0.137,-0.1348,-0.1357,-0.1347,-0.1344,-0.1341,-0.1337,-0.1407,-0.1345,-0.1345,-0.1345,-0.1346,-0.1346,0,-0.1506,-0.1501,-0.1483,-0.1466,-0.145,-0.146,-0.1447,-0.1432,-0.141,-0.1398,-0.1381,-0.1355,-0.1333,-0.1325,-0.1303,-0.1288,-0.129,-0.1282,-0.1281,-0.1279,-0.1332,-0.1339,-0.128,-0.128,-0.128,-0.128,-0.128,-0.128,-0.1472,-0.1443,-0.1443,-0.1409,-0.1403,-0.1379,-0.137,-0.1358,-0.1349,-0.1319,-0.1301,-0.1297,-0.1286,-0.1263,-0.1243,-0.1241,-0.1231,-0.1221,-0.122,-0.1269,-0.1276,-0.1282,-0.1289,-0.122,-0.122,-0.1169,-0.1168,-0.1168]},{"header":{"parameterUnit":"m.s-1","parameterCategory":1,"la1":30.2991,"la2":30.254,"lo1":-89.0895,"lo2":-89.0444,"dy":0.0017,"dx":0.0017,"nx":28,"ny":28,"refTime":"2025-08-20T21:00:00:Z","depth":0,"parameterNumber":3,"parameterNumberName":"V-component_of_WINDS"},"data":[0,0,0,0,0,0,0,0,0,0,0,0,0,0,0,0,0,0,0,0,0,0,0,0,0,0,0,0,0,0,0,0,0,0,0,0,0,0,0,0,0,0,0,0,0,0,0,0,0,0,0,0,0,0,0,0,0,0,-0.8885,-0.8885,0,-0.8828,-0.8828,-0.8827,-0.8838,-0.8839,-0.884,-0.8841,-0.8778,-0.8776,-0.8773,0,0,0,0,0,0,0,0,0,0,0,0,0,-0.8999,-0.8996,-0.8886,-0.8885,-0.8884,-0.8829,-0.8828,-0.8827,-0.8838,-0.8839,-0.884,-0.8841,-0.8779,-0.8776,-0.8773,0,0,0,0,0,0,0,0,0,0,0,0,0,-0.8946,-0.8996,-0.8886,-0.8883,-0.8882,-0.8829,-0.8828,-0.8827,-0.8837,-0.8839,-0.884,-0.8842,-0.878,-0.8776,-0.8773,-0.8717,0,0,-0.8761,-0.8759,0,0,0,0,0,0,0,0,-0.8949,-0.8942,-0.8884,-0.8883,-0.8882,-0.8842,-0.8845,-0.879,-0.8837,-0.8854,-0.8841,-0.8843,-0.8798,-0.8793,-0.8778,-0.8714,-0.8712,-0.876,-0.8758,-0.8756,-0.8755,0,0,0,0,0,0,0,-0.8953,-0.8944,-0.8863,-0.8883,-0.8882,-0.8883,-0.8877,-0.8834,-0.8818,-0.8853,-0.8853,-0.8847,-0.8798,-0.8782,-0.8777,-0.8711,-0.876,-0.8757,-0.8754,-0.8753,-0.8595,-0.8593,0,0,0,0,0,0,-0.8958,-0.8947,-0.8865,-0.8861,-0.892,-0.8879,-0.8873,-0.8853,-0.8819,-0.8815,-0.8846,-0.8848,-0.8788,-0.8782,-0.8775,-0.8706,-0.8756,-0.8752,-0.875,-0.8597,-0.8595,-0.8593,0,0,0,0,0,0,-0.896,-0.8951,-0.8867,-0.8904,-0.8894,-0.8876,-0.8853,-0.8851,-0.8836,-0.8813,-0.881,-0.8833,-0.8789,-0.878,-0.8731,-0.8704,-0.8751,-0.8747,-0.8599,-0.8596,-0.8594,-0.8568,0,0,0,0,0,0,-0.8964,-0.8951,-0.8931,-0.8904,-0.8892,-0.8826,-0.8852,-0.8849,-0.8829,-0.8831,-0.88,-0.8797,-0.879,-0.8737,-0.8727,-0.8699,-0.8744,-0.8602,-0.8598,-0.8595,-0.8571,-0.8565,-0.8559,0,0,0,0,0,-0.8968,-0.8926,-0.893,-0.892,-0.8867,-0.8824,-0.8817,-0.8811,-0.8827,-0.8806,-0.8791,-0.8798,-0.8709,-0.8732,-0.8721,-0.8691,-0.8603,-0.8599,-0.8595,-0.8574,-0.8566,-0.8559,0,0,0,0,0,0,-0.895,-0.8923,-0.8927,-0.8876,-0.8852,-0.8826,-0.8799,-0.8803,-0.8773,-0.8776,-0.8769,-0.8762,-0.8711,-0.8697,-0.8723,-0.8634,-0.8658,-0.8651,-0.8646,-0.8638,-0.8632,-0.8636,-0.8741,0,0,0,0,0,-0.894,-0.8909,-0.8887,-0.8843,-0.8831,-0.8817,-0.8798,-0.8796,-0.8771,-0.876,-0.8742,-0.8716,-0.8682,-0.8659,-0.8627,-0.857,-0.8561,-0.8544,-0.8538,-0.8533,-0.8527,-0.8492,-0.8483,-0.8579,-0.8579,-0.8579,0,0,-0.8919,-0.8901,-0.8881,-0.8839,-0.8821,-0.8787,-0.8809,-0.8773,-0.8746,-0.8754,-0.8706,-0.8692,-0.8662,-0.8608,-0.8583,-0.8594,-0.8498,-0.8528,-0.8524,-0.852,-0.8487,-0.8478,-0.847,-0.8577,-0.8577,-0.8578,0,0,-0.8864,-0.8848,-0.8809,-0.879,-0.8762,-0.8752,-0.8743,-0.8716,-0.8707,-0.8659,-0.8663,-0.8631,-0.8574,-0.8551,-0.8533,-0.8467,-0.8471,-0.8457,-0.8425,-0.8391,-0.8384,-0.8377,-0.8351,-0.8342,-0.8451,-0.8451,-0.8451,0,-0.8841,-0.8792,-0.8788,-0.8751,-0.8731,-0.8738,-0.8696,-0.8678,-0.864,-0.8625,-0.8639,-0.8565,-0.8546,-0.8485,-0.8469,-0.8454,-0.8441,-0.8459,-0.8385,-0.8378,-0.8372,-0.8347,-0.8337,-0.8449,-0.845,-0.845,-0.845,0,-0.8764,-0.8729,-0.8701,-0.8665,-0.8642,-0.8603,-0.8591,-0.8569,-0.8568,-0.8556,-0.8506,-0.8483,-0.8445,-0.843,-0.8429,-0.8369,-0.8376,-0.8388,-0.8411,-0.8361,-0.8337,-0.8328,-0.8447,-0.8447,-0.8448,-0.8448,0,0,-0.8695,-0.8657,-0.8646,-0.8629,-0.8598,-0.857,-0.853,-0.8494,-0.8473,-0.8447,-0.8411,-0.8362,-0.8372,-0.835,-0.8347,-0.8318,-0.8264,-0.8332,-0.8331,-0.8318,-0.8192,-0.8182,-0.8171,-0.8267,-0.8265,-0.8264,-0.8194,0,-0.8634,-0.8566,-0.8561,-0.8498,-0.8464,-0.8469,-0.8434,-0.841,-0.8398,-0.8367,-0.8353,-0.8317,-0.8334,-0.8321,-0.8293,-0.8276,-0.8238,-0.8282,-0.8231,-0.823,-0.8236,-0.8159,-0.8149,-0.8084,-0.8185,-0.8183,-0.8182,0,-0.8555,-0.8526,-0.846,-0.8432,-0.8417,-0.8386,-0.8351,-0.8322,-0.8294,-0.8287,-0.8262,-0.8262,-0.8219,-0.8245,-0.8184,-0.8214,-0.8193,-0.8181,-0.8179,-0.8172,-0.8201,-0.8147,-0.8063,-0.8052,-0.8168,-0.8169,-0.817,0,-0.8508,-0.8453,-0.8406,-0.8391,-0.8358,-0.8335,-0.832,-0.8293,-0.8271,-0.824,-0.8225,-0.8189,-0.8169,-0.814,-0.8129,-0.815,-0.8068,-0.8094,-0.8058,-0.8058,-0.8039,-0.804,-0.7947,-0.803,-0.803,-0.803,-0.803,0,-0.844,-0.8398,-0.8384,-0.8354,-0.8307,-0.8301,-0.8254,-0.824,-0.8216,-0.8182,-0.8185,-0.8153,-0.8142,-0.8107,-0.8099,-0.8047,-0.8039,-0.803,-0.8028,-0.8028,-0.8029,-0.8013,-0.8016,-0.8028,-0.8028,-0.8029,-0.8029,0,-0.8379,-0.8368,-0.8316,-0.8288,-0.828,-0.8247,-0.8222,-0.8193,-0.8181,-0.8138,-0.8128,-0.8109,-0.8068,-0.8055,-0.8006,-0.8,-0.7939,-0.7942,-0.7949,-0.7948,-0.7912,-0.7914,-0.7804,-0.7788,-0.7883,-0.7882,-0.7881,0,-0.8335,-0.8303,-0.8272,-0.825,-0.8234,-0.8199,-0.8176,-0.8168,-0.8144,-0.8109,-0.8083,-0.8043,-0.801,-0.7944,-0.7925,-0.7886,-0.7887,-0.785,-0.7881,-0.7881,-0.7883,-0.7884,-0.7879,-0.7844,-0.7843,-0.7842,-0.7842,0,-0.8257,-0.8253,-0.8221,-0.8186,-0.8159,-0.8131,-0.8104,-0.8085,-0.8073,-0.8045,-0.8004,-0.7979,-0.7928,-0.7887,-0.7848,-0.783,-0.7832,-0.7832,-0.7822,-0.7821,-0.7825,-0.7819,-0.793,-0.7835,-0.7835,-0.7836,-0.7836,-0.7836,-0.8201,-0.8172,-0.8145,-0.8109,-0.8088,-0.8062,-0.8032,-0.8017,-0.7983,-0.7941,-0.7939,-0.7893,-0.7864,-0.7811,-0.7791,-0.7754,-0.7764,-0.7749,-0.7745,-0.7741,-0.7737,-0.7833,-0.7747,-0.7747,-0.7748,-0.7748,-0.7748,0,-0.8121,-0.8104,-0.8071,-0.8033,-0.8003,-0.801,-0.798,-0.7954,-0.7914,-0.7887,-0.7855,-0.7806,-0.7766,-0.7743,-0.7703,-0.7677,-0.7677,-0.7666,-0.7667,-0.7662,-0.7731,-0.7744,-0.7667,-0.7667,-0.7667,-0.7667,-0.7667,-0.7667,-0.8076,-0.8027,-0.8019,-0.7958,-0.7941,-0.7897,-0.7879,-0.7854,-0.7832,-0.7778,-0.7745,-0.7731,-0.7705,-0.7662,-0.7624,-0.7619,-0.7602,-0.759,-0.7585,-0.7649,-0.7658,-0.7665,-0.7677,-0.7587,-0.7587,-0.7518,-0.7518,-0.7517]}]]